Flag for Poland Weather past 2 weeks in Radom, Poland

Now
39 °F

Low clouds.


Feels Like: 34 °F
Forecast: 30 / 40 °F
Wind: 7 mph from Northeast

Location: Kielce

Current Time: Oct 23, 2014 at 11:17:34 AM

Latest Report: Oct 23, 2014 at 10:00 AM


Visibility: 7 mi

Pressure: 29.98 "Hg

Humidity: 95%

Dew point: 38 °F

Location of RadomLocation

Historic Weather in Radom — Graph

°F

Radom temperature yesterday

Maximum temperature yesterday: 52 °F (at 9:00 PM)
Minimum temperature yesterday: 47 °F (at 7:00 AM)
Average temperature yesterday: 49 °F

Past Weeks' High & Low Weather Summary

 TemperatureHumidityPressure
High72 °F (Oct 9, 2:00 PM)100% (Oct 11, 12:00 AM)30.38 "Hg (Oct 11, 12:00 AM)
Low39 °F (Oct 23, 10:00 AM)56% (Oct 10, 2:00 PM)29.57 "Hg (Oct 22, 6:00 AM)
Average55 °F90%29.93 "Hg
* Reported Oct 8 10:00 AM — Oct 23 10:00 AM, Radom, Weather by CustomWeather, © 2014

Note: Actual official high and low records may vary slightly from our data, if they occured in-between our weather recording intervals... More about our weather records

Advertising

Radom weather history for previous 24 hours

 ConditionsComfort  
Time TempWeatherWind HumidityBarometerVisibility
10:00 AM
Oct 23
39 °FLow clouds.7 mph95%29.98 "Hg7 mi
9:00 AM40 °FLow clouds.8 mph94%29.94 "Hg19 mi
8:00 AM42 °FLow clouds.7 mph94%29.90 "Hg19 mi
7:00 AM42 °FLow clouds.7 mph95%29.86 "Hg9 mi
6:00 AM43 °FLight rain. Low clouds.6 mph95%29.84 "Hg8 mi
5:00 AM44 °FLight rain. Low clouds.8 mph96%29.80 "Hg9 mi
4:00 AM46 °FLight rain. Low clouds.7 mph95%29.77 "Hg9 mi
3:00 AM47 °FLight rain. Low clouds.7 mph95%29.74 "Hg3 mi
2:00 AM49 °FLight rain. Low clouds.8 mph94%29.71 "Hg3 mi
1:00 AM50 °FLight rain. Low clouds.8 mph95%29.68 "Hg2 mi
12:00 AM51 °FLight rain. Low clouds.7 mph94%29.65 "Hg2 mi
11:00 PM
Oct 22
51 °FLight rain. Low clouds.6 mph95%29.65 "Hg2 mi
10:00 PM51 °FRain. Low clouds.3 mph96%29.64 "Hg2 mi
9:00 PM52 °FLight rain. Low clouds.5 mph95%29.63 "Hg3 mi
8:00 PM50 °FLight rain. Overcast.2 mph99%29.62 "Hg2 mi
7:00 PM47 °FRain. Low clouds.3 mph98%29.62 "Hg2 mi
6:00 PM47 °FHeavy rain. Low clouds.1 mph98%29.60 "Hg2 mi
5:00 PM49 °FHeavy rain. Low clouds.2 mph98%29.59 "Hg1 mi
4:00 PM50 °FHeavy rain. Low clouds.2 mph98%29.59 "Hg1 mi
3:00 PM50 °FLight rain. Low clouds.1 mph96%29.58 "Hg2 mi
2:00 PM51 °FLight rain. Low clouds.No wind94%29.58 "Hg2 mi
1:00 PM50 °FLight rain. Low clouds.1 mph93%29.59 "Hg3 mi
12:00 PM50 °FLight rain. Low clouds.2 mph95%29.59 "Hg2 mi
11:00 AM50 °FFog.1 mph95%29.59 "Hg2 mi
Weather by CustomWeather, © 2014

See weather overviewHow to use our weather pages